Location: Krakow
(50.0830°N, 19.9170°E)
Time: 11:49:36
(UTC+02:00)

Tiros 1 - Pass Details

Date: 08 February 2023
Orbit: 627 x 662 km, 48.4° (Epoch: 26 March)

Event Time Altitude Azimuth Distance (km) Brightness Sun altitude
Rises 23:02:14 0° 240° (WSW) 2,903 - -53.2°
Reaches altitude 10° 23:04:35 10° 235° (SW) 1,998 - -53.3°
Maximum altitude 23:09:01 50° 160° (SSE) 803 - -53.6°
Drops below altitude 10° 23:13:29 10° 86° (E) 2,013 - -53.8°
Sets 23:15:52 0° 81° (E) 2,927 - -53.9°
